Salt Lake City, UT

8:23 PM MDT on May 22, 2018 (GMT -0600)
Salt Lake City International

Weather History for KSLC - July, 2014

Change the Weather History Date:

Thursday, July 17, 2014

  Actual Average Record
Temperature  
Mean Temperature 79 °F 79 °F  
Max Temperature 93 °F 93 °F 103 °F (1960)
Min Temperature 64 °F 65 °F 53 °F (1943)
Degree Days  
Heating Degree Days 0 0  
Month to date heating degree days 0 0  
Since 1 June heating degree days 39 46  
Since 1 July heating degree days 0 0  
Cooling Degree Days 14 14  
Month to date cooling degree days 302 216  
Year to date cooling degree days 544 453  
Since 1 June cooling degree days 482 403  
Growing Degree Days 30 (Base 50)    
Moisture  
Dew Point 39 °F    
Average Humidity 30    
Maximum Humidity 44    
Minimum Humidity 15    
Precipitation  
Precipitation 0.00 in 0.02 in 0.69 in (1976)
Month to date precipitation 0.09 0.30  
Year to date precipitation 7.76 9.51  
Snow  
Snow 0.00 in 0.00 in - ()
Month to date snowfall 0.0 0.0  
Since 1 July snowfall 0.0 0.0  
Snow Depth 0.00 in    
Sea Level Pressure  
Sea Level Pressure 29.82 in    
Wind  
Wind Speed 7 mph (SSW)    
Max Wind Speed 16 mph    
Max Gust Speed 20 mph    
Visibility 10 miles    
Events      
T = Trace of Precipitation, MM = Missing Value Source: NWS Daily Summary

Daily Weather History Graph

Daily Weather History Graph

Search for Another Location

Airport or City:

Astronomy

Jul. 17, 2014 Rise Set
Actual Time 6:11 AM MDT 8:56 PM MDT
Civil Twilight 5:38 AM MDT 9:28 PM MDT
Nautical Twilight 4:58 AM MDT 10:09 PM MDT
Astronomical Twilight 4:12 AM MDT 10:55 PM MDT
Moon No Moon Rise 12:29 PM MDT (7/17)
Length of Visible Light 15h 50m
Length of Day
14h 45m
Waning Gibbous, 65% of the Moon is Illuminated
Jul 17
Waning Gibbous
Jul 18
Last Quarter
Jul 26
New
Aug 3
First Quarter
Aug 10
Full

Hourly Weather History & Observations

Time (MDT) Temp. Dew Point Humidity Pressure Visibility Wind Dir Wind Speed Gust Speed Precip Events Conditions
12:53 AM 71.1 °F 39.9 °F 32% 29.83 in 10.0 mi ESE 5.8 mph - N/A   Scattered Clouds
1:53 AM 71.1 °F 46.0 °F 41% 29.83 in 10.0 mi South 3.5 mph - N/A   Partly Cloudy
2:53 AM 68.0 °F 44.1 °F 42% 29.83 in 10.0 mi West 4.6 mph - N/A   Partly Cloudy
3:53 AM 66.0 °F 44.1 °F 45% 29.83 in 10.0 mi West 5.8 mph - N/A   Partly Cloudy
4:53 AM 68.0 °F 43.0 °F 40% 29.83 in 10.0 mi Calm Calm - N/A   Clear
5:53 AM 66.0 °F 42.1 °F 42% 29.85 in 10.0 mi SSE 5.8 mph - N/A   Partly Cloudy
6:53 AM 69.1 °F 42.1 °F 38% 29.86 in 10.0 mi SSE 9.2 mph - N/A   Partly Cloudy
7:53 AM 73.0 °F 41.0 °F 31% 29.86 in 10.0 mi South 11.5 mph - N/A   Partly Cloudy
8:53 AM 78.1 °F 42.1 °F 28% 29.87 in 10.0 mi South 9.2 mph - N/A   Partly Cloudy
9:53 AM 81.0 °F 39.9 °F 23% 29.88 in 10.0 mi SSE 6.9 mph - N/A   Partly Cloudy
10:53 AM 82.9 °F 43.0 °F 24% 29.88 in 10.0 mi Calm Calm - N/A   Partly Cloudy
11:53 AM 86.0 °F 41.0 °F 20% 29.87 in 10.0 mi Variable 3.5 mph - N/A   Partly Cloudy
12:53 PM 88.0 °F 39.9 °F 18% 29.84 in 10.0 mi Calm Calm - N/A   Partly Cloudy
1:53 PM 91.0 °F 37.9 °F 15% 29.83 in 10.0 mi NW 10.4 mph - N/A   Partly Cloudy
2:53 PM 91.9 °F 39.0 °F 16% 29.81 in 10.0 mi North 9.2 mph 16.1 mph N/A   Partly Cloudy
3:53 PM 91.9 °F 37.9 °F 15% 29.81 in 10.0 mi NW 8.1 mph - N/A   Scattered Clouds
4:53 PM 91.9 °F 39.0 °F 16% 29.78 in 10.0 mi NW 8.1 mph 20.7 mph N/A   Scattered Clouds
5:53 PM 91.0 °F 30.0 °F 11% 29.76 in 10.0 mi Variable 4.6 mph - N/A   Scattered Clouds
6:53 PM 91.0 °F 34.0 °F 13% 29.74 in 10.0 mi North 4.6 mph - N/A   Scattered Clouds
7:53 PM 90.0 °F 33.1 °F 13% 29.72 in 10.0 mi Calm Calm - N/A   Scattered Clouds
8:53 PM 84.9 °F 35.1 °F 17% 29.72 in 10.0 mi North 4.6 mph - N/A   Scattered Clouds
9:53 PM 81.0 °F 35.1 °F 19% 29.74 in 10.0 mi SE 8.1 mph - N/A   Scattered Clouds
10:53 PM 78.1 °F 37.0 °F 23% 29.75 in 10.0 mi SSE 8.1 mph - N/A   Scattered Clouds
11:53 PM 77.0 °F 35.6 °F 22% 29.94 in 10.0 mi SSW 3.5 mph - N/A   Scattered Clouds